EW1734 Weather Reports


Display with metric or nautical units.
time (UTC)temp
F
wind
direction
speed
MPH
gust
MPH
rain 1hr
in
rain 24hr
in
rain mn
in
humidity
%
barometer
mb
20260507090354 57 24 0.0 2.0 0.00 0.00 0.00 80 1016.6
20260507085851 57 9 0.0 5.0 0.00 0.00 0.00 81 1016.9
20260507085348 56 18 2.0 5.0 0.00 0.00 0.00 82 1016.8
20260507084845 55 37 6.0 6.0 0.00 0.00 0.00 83 1017.1
20260507084342 55 75 0.0 2.0 0.00 0.00 0.00 83 1017.0
20260507083839 55 357 2.0 4.0 0.00 0.00 0.00 82 1017.2
20260507083336 56 0 3.0 4.0 0.00 0.00 0.00 82 1017.2
20260507082832 56 15 4.0 6.0 0.00 0.00 0.00 82 1017.0
20260507082327 56 23 2.0 4.0 0.00 0.00 0.00 82 1017.3
20260507081825 56 27 2.0 3.0 0.00 0.00 0.00 81 1017.4
20260507081321 56 23 3.0 3.0 0.00 0.00 0.00 81 1017.5
20260507080818 56 9 2.0 3.0 0.00 0.00 0.00 81 1017.6
20260507080314 56 34 2.0 4.0 0.00 0.00 0.00 81 1017.7
20260507075809 56 24 2.0 3.0 0.00 0.00 0.00 81 1017.5
20260507075307 56 61 1.0 2.0 0.00 0.00 0.00 80 1017.5
20260507075034 57 22 2.0 0.0 0.00 0.00 0.00 78 1016.6
20260507074951 57 22 2.0 0.0 0.00 0.00 0.00 78 1016.6
20260507074915 57 22 2.0 0.0 0.00 0.00 0.00 78 1016.6
20260507074838 57 22 2.0 0.0 0.00 0.00 0.00 78 1016.6
20260507074802 56 66 2.0 2.0 0.00 0.00 0.00 80 1017.6
20260507074626 57 22 2.0 0.0 0.00 0.00 0.00 78 1016.6
20260507074549 57 22 2.0 0.0 0.00 0.00 0.00 78 1016.6
20260507074512 57 22 2.0 0.0 0.00 0.00 0.00 78 1016.6
20260507074429 57 22 2.0 0.0 0.00 0.00 0.00 78 1016.6
20260507074405 57 22 2.0 0.0 0.00 0.00 0.00 78 1016.6
20260507074300 56 48 0.0 3.0 0.00 0.00 0.00 80 1017.5
20260507073945 57 54 0.0 0.0 0.00 0.00 0.00 78 1016.5
20260507073906 57 54 0.0 0.0 0.00 0.00 0.00 77 1016.5
20260507073842 57 54 0.0 0.0 0.00 0.00 0.00 78 1016.5
20260507073811 57 54 0.0 0.0 0.00 0.00 0.00 77 1016.5
20260507073757 56 55 0.0 3.0 0.00 0.00 0.00 80 1017.4
20260507073734 57 54 0.0 0.0 0.00 0.00 0.00 77 1016.5
20260507073658 57 54 0.0 0.0 0.00 0.00 0.00 77 1016.5
20260507073439 58 54 0.0 0.0 0.00 0.00 0.00 77 1016.5
20260507073402 58 54 0.0 0.0 0.00 0.00 0.00 77 1016.5
20260507073332 58 54 0.0 0.0 0.00 0.00 0.00 78 1016.5
20260507073302 58 54 0.0 1.0 0.00 0.00 0.00 77 1016.5
20260507073253 57 49 1.0 3.0 0.00 0.00 0.00 80 1017.3
20260507073035 58 46 1.0 0.0 0.00 0.00 0.00 77 1016.4
20260507073012 58 46 1.0 0.0 0.00 0.00 0.00 78 1016.4
20260507072941 58 46 1.0 0.0 0.00 0.00 0.00 77 1016.4
20260507072904 58 46 1.0 0.0 0.00 0.00 0.00 77 1016.4
20260507072821 57 46 1.0 0.0 0.00 0.00 0.00 77 1016.4
20260507072751 57 70 1.0 1.0 0.00 0.00 0.00 80 1017.5
20260507072745 57 46 1.0 0.0 0.00 0.00 0.00 77 1016.4
20260507072551 57 46 1.0 0.0 0.00 0.00 0.00 78 1016.4
20260507072331 57 46 1.0 0.0 0.00 0.00 0.00 78 1016.4
20260507072308 57 46 1.0 0.0 0.00 0.00 0.00 78 1016.4
20260507072248 57 85 2.0 2.0 0.00 0.00 0.00 79 1017.5
20260507072237 57 46 1.0 2.0 0.00 0.00 0.00 78 1016.4
20260507072146 57 48 0.0 0.0 0.00 0.00 0.00 78 1016.6
20260507072103 58 48 0.0 0.0 0.00 0.00 0.00 78 1016.6
20260507072025 58 48 0.0 0.0 0.00 0.00 0.00 78 1016.6
20260507071942 58 48 0.0 0.0 0.00 0.00 0.00 78 1016.6
20260507071938 58 48 0.0 0.0 0.00 0.00 0.00 77 1016.6
20260507071914 58 48 0.0 0.0 0.00 0.00 0.00 78 1016.6
20260507071746 57 69 2.0 2.0 0.00 0.00 0.00 79 1017.5
20260507071654 58 48 0.0 0.0 0.00 0.00 0.00 77 1016.6
20260507071617 58 48 0.0 0.0 0.00 0.00 0.00 77 1016.6
20260507071540 58 48 0.0 0.0 0.00 0.00 0.00 78 1016.6
20260507071510 58 48 0.0 0.0 0.00 0.00 0.00 77 1016.6
20260507071315 58 48 0.0 1.0 0.00 0.00 0.00 77 1016.6
20260507071242 57 64 1.0 3.0 0.00 0.00 0.00 79 1017.6
20260507071225 58 41 2.0 0.0 0.00 0.00 0.00 77 1016.4
20260507071148 58 41 2.0 0.0 0.00 0.00 0.00 77 1016.4
20260507071111 58 41 2.0 0.0 0.00 0.00 0.00 77 1016.4
20260507070851 58 41 2.0 0.0 0.00 0.00 0.00 77 1016.4
20260507070808 58 41 2.0 0.0 0.00 0.00 0.00 77 1016.4
20260507070739 57 89 0.0 1.0 0.00 0.00 0.00 78 1017.4
20260507070731 58 41 2.0 0.0 0.00 0.00 0.00 77 1016.4
20260507070650 58 41 2.0 0.0 0.00 0.00 0.00 77 1016.4
20260507070614 58 41 2.0 0.0 0.00 0.00 0.00 77 1016.4
20260507070550 58 41 2.0 0.0 0.00 0.00 0.00 77 1016.4
20260507070505 58 41 2.0 2.0 0.00 0.00 0.00 77 1016.4
20260507070415 58 32 0.0 0.0 0.00 0.00 0.00 77 1016.7
20260507070236 57 51 0.0 2.0 0.00 0.00 0.00 78 1017.6
20260507070202 58 32 0.0 0.0 0.00 0.00 0.00 77 1016.7
20260507070125 58 32 0.0 0.0 0.00 0.00 0.00 77 1016.7
20260507070046 58 32 0.0 0.0 0.00 0.00 0.00 76 1016.7
20260507070000 58 32 0.0 0.0 0.00 0.00 0.00 76 1016.7
20260507065923 58 32 0.0 0.0 0.00 0.00 0.00 76 1016.7
20260507065847 58 32 0.0 0.0 0.00 0.00 0.00 76 1016.7
20260507065823 58 32 0.0 0.0 0.00 0.00 0.00 76 1016.7
20260507065759 58 32 0.0 0.0 0.00 0.00 0.00 77 1016.7
20260507065732 57 15 2.0 4.0 0.00 0.00 0.00 78 1017.5
20260507065716 58 32 0.0 0.0 0.00 0.00 0.00 76 1016.7
20260507065653 58 32 0.0 0.0 0.00 0.00 0.00 76 1016.7
20260507065610 58 32 0.0 1.0 0.00 0.00 0.00 76 1016.7
20260507065501 58 48 2.0 0.0 0.00 0.00 0.00 76 1016.4
20260507065241 58 48 2.0 0.0 0.00 0.00 0.00 76 1016.4
20260507065229 57 37 0.0 2.0 0.00 0.00 0.00 78 1017.4
20260507065021 58 48 2.0 0.0 0.00 0.00 0.00 76 1016.4
20260507064938 58 48 2.0 0.0 0.00 0.00 0.00 76 1016.4
20260507064900 58 48 2.0 0.0 0.00 0.00 0.00 76 1016.4
20260507064830 58 48 2.0 0.0 0.00 0.00 0.00 75 1016.4
20260507064806 58 48 2.0 0.0 0.00 0.00 0.00 76 1016.4
20260507064726 57 33 2.0 3.0 0.00 0.00 0.00 78 1017.3
20260507064559 58 48 2.0 0.0 0.00 0.00 0.00 75 1016.4
20260507064529 58 48 2.0 2.0 0.00 0.00 0.00 75 1016.4
20260507064225 58 6 1.0 4.0 0.00 0.00 0.00 77 1017.5
20260507063940 59 55 0.0 0.0 0.00 0.00 0.00 75 1016.5
20260507063858 59 55 0.0 0.0 0.00 0.00 0.00 75 1016.5
20260507063821 59 55 0.0 0.0 0.00 0.00 0.00 75 1016.5
20260507063744 59 55 0.0 0.0 0.00 0.00 0.00 75 1016.5
20260507063722 58 13 2.0 2.0 0.00 0.00 0.00 77 1017.5
20260507063654 59 55 0.0 0.0 0.00 0.00 0.00 75 1016.5
20260507063219 57 27 3.0 3.0 0.00 0.00 0.00 78 1017.4
20260507062944 59 68 0.0 0.0 0.00 0.00 0.00 74 1016.4
20260507062907 59 68 0.0 0.0 0.00 0.00 0.00 74 1016.4
20260507062830 59 68 0.0 0.0 0.00 0.00 0.00 74 1016.4
20260507062746 59 68 0.0 0.0 0.00 0.00 0.00 74 1016.4
20260507062716 58 62 0.0 2.0 0.00 0.00 0.00 78 1017.3
20260507062703 59 68 0.0 0.0 0.00 0.00 0.00 74 1016.4
20260507062613 59 68 0.0 0.0 0.00 0.00 0.00 74 1016.4
20260507062530 59 68 0.0 0.0 0.00 0.00 0.00 74 1016.4
20260507062453 59 68 0.0 0.0 0.00 0.00 0.00 74 1016.4
20260507062429 59 68 0.0 0.0 0.00 0.00 0.00 74 1016.4
20260507062359 59 68 0.0 1.0 0.00 0.00 0.00 74 1016.4
20260507062309 60 0 0.0 0.0 0.00 0.00 0.00 74 1016.4
20260507062213 58 57 1.0 2.0 0.00 0.00 0.00 77 1017.6
20260507062048 60 0 0.0 0.0 0.00 0.00 0.00 73 1016.4
20260507061958 60 0 0.0 0.0 0.00 0.00 0.00 73 1016.4
20260507061730 60 0 0.0 0.0 0.00 0.00 0.00 73 1016.4
20260507061711 58 111 1.0 2.0 0.00 0.00 0.00 77 1017.5
20260507061654 60 0 0.0 0.0 0.00 0.00 0.00 73 1016.4
20260507061440 60 0 0.0 0.0 0.00 0.00 0.00 73 1016.4
20260507061417 60 0 0.0 0.0 0.00 0.00 0.00 73 1016.4
20260507061346 60 0 0.0 0.0 0.00 0.00 0.00 73 1016.4
20260507061243 60 45 1.0 0.0 0.00 0.00 0.00 73 1016.5
20260507061209 58 41 2.0 2.0 0.00 0.00 0.00 77 1017.4
20260507061024 60 45 1.0 0.0 0.00 0.00 0.00 73 1016.5
20260507060947 60 45 1.0 0.0 0.00 0.00 0.00 73 1016.5
20260507060856 60 45 1.0 0.0 0.00 0.00 0.00 73 1016.5
20260507060819 60 45 1.0 0.0 0.00 0.00 0.00 73 1016.5
20260507060755 60 45 1.0 0.0 0.00 0.00 0.00 73 1016.5
20260507060725 60 45 1.0 0.0 0.00 0.00 0.00 72 1016.5
20260507060707 58 42 1.0 2.0 0.00 0.00 0.00 77 1017.5
20260507060648 60 45 1.0 0.0 0.00 0.00 0.00 72 1016.5
20260507060605 60 45 1.0 0.0 0.00 0.00 0.00 72 1016.5
20260507060541 60 45 1.0 0.0 0.00 0.00 0.00 72 1016.5
20260507060314 60 50 0.0 0.0 0.00 0.00 0.00 72 1016.2
20260507060231 60 50 0.0 0.0 0.00 0.00 0.00 72 1016.2
20260507060203 58 44 1.0 2.0 0.00 0.00 0.00 77 1017.5
20260507060005 60 50 0.0 0.0 0.00 0.00 0.00 72 1016.2
20260507055941 60 50 0.0 0.0 0.00 0.00 0.00 72 1016.2
20260507055910 61 50 0.0 0.0 0.00 0.00 0.00 72 1016.2
20260507055827 61 50 0.0 0.0 0.00 0.00 0.00 72 1016.2
20260507055659 58 36 1.0 2.0 0.00 0.00 0.00 76 1017.5
20260507055627 61 50 0.0 0.0 0.00 0.00 0.00 72 1016.2
20260507055419 61 50 0.0 0.0 0.00 0.00 0.00 71 1016.2
20260507055225 61 50 0.0 0.0 0.00 0.00 0.00 71 1016.2
20260507055155 59 25 0.0 3.0 0.00 0.00 0.00 76 1017.6
20260507054659 61 64 0.0 0.0 0.00 0.00 0.00 70 1016.3
20260507054651 59 66 0.0 2.0 0.00 0.00 0.00 75 1017.4
20260507054426 61 64 0.0 0.0 0.00 0.00 0.00 70 1016.3
20260507054402 61 64 0.0 0.0 0.00 0.00 0.00 70 1016.3
20260507054332 62 64 0.0 0.0 0.00 0.00 0.00 70 1016.3
20260507054236 62 64 0.0 0.0 0.00 0.00 0.00 70 1016.3
20260507054148 59 71 0.0 2.0 0.00 0.00 0.00 75 1017.4
20260507054146 62 64 0.0 0.0 0.00 0.00 0.00 70 1016.3
20260507054110 62 64 0.0 0.0 0.00 0.00 0.00 70 1016.3
20260507054046 62 64 0.0 0.0 0.00 0.00 0.00 70 1016.3
20260507054013 62 64 0.0 1.0 0.00 0.00 0.00 70 1016.3
20260507053936 62 30 0.0 0.0 0.00 0.00 0.00 69 1016.1
20260507053715 62 30 0.0 0.0 0.00 0.00 0.00 70 1016.1
20260507053646 59 63 0.0 2.0 0.00 0.00 0.00 74 1017.2
20260507053632 62 30 0.0 0.0 0.00 0.00 0.00 70 1016.1
20260507053608 62 30 0.0 0.0 0.00 0.00 0.00 70 1016.1
20260507053538 62 30 0.0 0.0 0.00 0.00 0.00 69 1016.1
20260507053448 62 30 0.0 0.0 0.00 0.00 0.00 69 1016.1
20260507053358 62 30 0.0 0.0 0.00 0.00 0.00 68 1016.1
20260507053322 62 30 0.0 0.0 0.00 0.00 0.00 68 1016.1
20260507053238 63 30 0.0 0.0 0.00 0.00 0.00 68 1016.1
20260507053207 63 30 0.0 0.0 0.00 0.00 0.00 69 1016.1
20260507053144 59 42 1.0 2.0 0.00 0.00 0.00 74 1017.3
20260507053137 63 30 0.0 0.0 0.00 0.00 0.00 68 1016.1
20260507053113 63 30 0.0 0.0 0.00 0.00 0.00 68 1016.1
20260507052840 63 33 1.0 0.0 0.00 0.00 0.00 68 1016.2
20260507052816 63 33 1.0 0.0 0.00 0.00 0.00 68 1016.2
20260507052746 63 33 1.0 0.0 0.00 0.00 0.00 67 1016.2
20260507052709 63 33 1.0 0.0 0.00 0.00 0.00 67 1016.2
20260507052642 60 81 0.0 0.0 0.00 0.00 0.00 73 1017.4
20260507052613 63 33 1.0 0.0 0.00 0.00 0.00 66 1016.2
20260507052530 63 33 1.0 0.0 0.00 0.00 0.00 66 1016.2
20260507052445 63 33 1.0 0.0 0.00 0.00 0.00 66 1016.2
20260507052402 64 33 1.0 0.0 0.00 0.00 0.00 66 1016.2
20260507052138 60 29 0.0 2.0 0.00 0.00 0.00 73 1017.4
20260507052129 64 33 1.0 0.0 0.00 0.00 0.00 66 1016.2
20260507052105 64 33 1.0 0.0 0.00 0.00 0.00 66 1016.2
20260507051844 64 81 3.0 0.0 0.00 0.00 0.00 66 1016.0
20260507051820 64 81 3.0 0.0 0.00 0.00 0.00 65 1016.0
20260507051756 64 81 3.0 0.0 0.00 0.00 0.00 66 1016.0
20260507051732 64 81 3.0 0.0 0.00 0.00 0.00 65 1016.0
20260507051708 64 81 3.0 0.0 0.00 0.00 0.00 66 1016.0
20260507051645 64 81 3.0 0.0 0.00 0.00 0.00 66 1016.0
20260507051636 60 89 0.0 2.0 0.00 0.00 0.00 73 1017.4
20260507051621 64 81 3.0 0.0 0.00 0.00 0.00 65 1016.0
20260507051557 64 81 3.0 0.0 0.00 0.00 0.00 65 1016.0
20260507051527 64 81 3.0 0.0 0.00 0.00 0.00 66 1016.0
20260507051450 64 81 3.0 0.0 0.00 0.00 0.00 66 1016.0
20260507051406 64 81 3.0 0.0 0.00 0.00 0.00 66 1016.0
20260507051329 64 81 3.0 0.0 0.00 0.00 0.00 66 1016.0
20260507051253 64 81 3.0 0.0 0.00 0.00 0.00 66 1016.0
20260507051132 60 73 0.0 3.0 0.00 0.00 0.00 72 1017.2
20260507051059 64 81 3.0 3.0 0.00 0.00 0.00 65 1016.0
20260507050852 64 117 3.0 0.0 0.00 0.00 0.00 66 1016.0
20260507050808 64 117 3.0 0.0 0.00 0.00 0.00 65 1016.0
20260507050629 60 9 0.0 2.0 0.00 0.00 0.00 72 1017.2
20260507050536 64 117 3.0 0.0 0.00 0.00 0.00 65 1016.0
20260507050459 64 117 3.0 0.0 0.00 0.00 0.00 65 1016.0
20260507050422 64 117 3.0 0.0 0.00 0.00 0.00 65 1016.0
20260507050345 64 117 3.0 0.0 0.00 0.00 0.00 65 1016.0
20260507050309 64 117 3.0 0.0 0.00 0.00 0.00 64 1016.0
20260507050245 64 117 3.0 0.0 0.00 0.00 0.00 65 1016.0
20260507050125 61 31 2.0 2.0 0.00 0.00 0.00 71 1017.3
20260507050038 64 117 3.0 0.0 0.00 0.00 0.00 64 1016.0
20260507050007 64 117 3.0 4.0 0.00 0.00 0.00 65 1016.0
20260507045917 64 99 3.0 0.0 0.00 0.00 0.00 65 1015.9
20260507045834 64 99 3.0 0.0 0.00 0.00 0.00 65 1015.9
20260507045757 64 99 3.0 0.0 0.00 0.00 0.00 64 1015.9
20260507045734 64 99 3.0 0.0 0.00 0.00 0.00 64 1015.9
20260507045710 64 99 3.0 0.0 0.00 0.00 0.00 65 1015.9
20260507045627 64 99 3.0 0.0 0.00 0.00 0.00 64 1015.9
20260507045623 61 41 2.0 2.0 0.00 0.00 0.00 70 1017.3
20260507045550 64 99 3.0 0.0 0.00 0.00 0.00 64 1015.9
20260507045507 64 99 3.0 0.0 0.00 0.00 0.00 64 1015.9
20260507045430 64 99 3.0 0.0 0.00 0.00 0.00 64 1015.9
20260507045353 64 99 3.0 0.0 0.00 0.00 0.00 64 1015.9
20260507045329 64 99 3.0 0.0 0.00 0.00 0.00 64 1015.9
20260507045259 65 99 3.0 3.0 0.00 0.00 0.00 64 1015.9
20260507045210 65 147 0.0 0.0 0.00 0.00 0.00 64 1015.9
20260507045133 65 147 0.0 0.0 0.00 0.00 0.00 64 1015.9
20260507045119 62 38 0.0 2.0 0.00 0.00 0.00 70 1017.2
20260507045050 65 147 0.0 0.0 0.00 0.00 0.00 64 1015.9
20260507044841 64 147 0.0 0.0 0.00 0.00 0.00 64 1015.9
20260507044811 64 147 0.0 0.0 0.00 0.00 0.00 65 1015.9
20260507044734 64 147 0.0 0.0 0.00 0.00 0.00 65 1015.9
20260507044658 64 147 0.0 0.0 0.00 0.00 0.00 65 1015.9
20260507044628 64 147 0.0 0.0 0.00 0.00 0.00 64 1015.9
20260507044616 62 89 0.0 0.0 0.00 0.00 0.00 70 1017.1
20260507044414 64 147 0.0 0.0 0.00 0.00 0.00 65 1015.9
20260507044350 64 147 0.0 0.0 0.00 0.00 0.00 65 1015.9
20260507044320 64 147 0.0 1.0 0.00 0.00 0.00 66 1015.9
20260507044113 63 39 0.0 2.0 0.00 0.00 0.00 69 1017.3
20260507043720 64 89 0.0 0.0 0.00 0.00 0.00 66 1015.8
20260507043624 64 89 0.0 0.0 0.00 0.00 0.00 66 1015.8
20260507043609 63 82 0.0 2.0 0.00 0.00 0.00 66 1017.2
20260507043540 64 89 0.0 0.0 0.00 0.00 0.00 67 1015.8
20260507043504 64 89 0.0 0.0 0.00 0.00 0.00 67 1015.8
20260507043427 64 89 0.0 0.0 0.00 0.00 0.00 67 1015.8
20260507043220 64 89 0.0 0.0 0.00 0.00 0.00 67 1015.8
20260507043106 64 89 0.0 2.0 0.00 0.00 0.00 66 1017.1
20260507042955 64 82 1.0 0.0 0.00 0.00 0.00 67 1015.7
20260507042912 64 82 1.0 0.0 0.00 0.00 0.00 67 1015.7
20260507042848 64 82 1.0 0.0 0.00 0.00 0.00 67 1015.7
20260507042809 64 82 1.0 0.0 0.00 0.00 0.00 66 1015.7
20260507042732 64 82 1.0 0.0 0.00 0.00 0.00 66 1015.7
20260507042655 64 82 1.0 0.0 0.00 0.00 0.00 66 1015.7
20260507042602 64 80 2.0 3.0 0.00 0.00 0.00 66 1017.2
20260507042114 64 82 1.0 0.0 0.00 0.00 0.00 66 1015.7
20260507042058 64 68 1.0 3.0 0.00 0.00 0.00 66 1017.0
20260507042050 64 82 1.0 0.0 0.00 0.00 0.00 66 1015.7
20260507042019 64 82 1.0 2.0 0.00 0.00 0.00 66 1015.7
20260507041943 64 129 0.0 0.0 0.00 0.00 0.00 66 1015.5
20260507041911 64 129 0.0 0.0 0.00 0.00 0.00 65 1015.5
20260507041835 64 129 0.0 0.0 0.00 0.00 0.00 65 1015.5
20260507041615 64 129 0.0 0.0 0.00 0.00 0.00 65 1015.5
20260507041555 64 68 1.0 3.0 0.00 0.00 0.00 65 1017.0
20260507041538 64 129 0.0 0.0 0.00 0.00 0.00 65 1015.5
20260507041448 64 129 0.0 0.0 0.00 0.00 0.00 65 1015.5
20260507041411 64 129 0.0 0.0 0.00 0.00 0.00 65 1015.5
20260507041348 64 129 0.0 0.0 0.00 0.00 0.00 65 1015.5
20260507041324 64 129 0.0 0.0 0.00 0.00 0.00 64 1015.5
20260507041241 64 129 0.0 0.0 0.00 0.00 0.00 64 1015.5
20260507041211 64 129 0.0 0.0 0.00 0.00 0.00 65 1015.5
20260507041140 64 129 0.0 0.0 0.00 0.00 0.00 65 1015.5
20260507041103 64 37 0.0 0.0 0.00 0.00 0.00 65 1015.5
20260507041052 64 157 3.0 4.0 0.00 0.00 0.00 64 1016.9
20260507041019 64 37 0.0 0.0 0.00 0.00 0.00 64 1015.5
20260507040942 64 37 0.0 0.0 0.00 0.00 0.00 64 1015.5
20260507040905 64 37 0.0 0.0 0.00 0.00 0.00 64 1015.5
20260507040712 65 37 0.0 0.0 0.00 0.00 0.00 64 1015.5
20260507040635 65 37 0.0 0.0 0.00 0.00 0.00 64 1015.5
20260507040558 65 37 0.0 0.0 0.00 0.00 0.00 64 1015.5
20260507040548 64 49 0.0 2.0 0.00 0.00 0.00 65 1017.0
20260507040521 65 37 0.0 0.0 0.00 0.00 0.00 64 1015.5
20260507040431 65 37 0.0 0.0 0.00 0.00 0.00 64 1015.5
20260507040341 65 37 0.0 0.0 0.00 0.00 0.00 64 1015.5
20260507040318 65 37 0.0 0.0 0.00 0.00 0.00 64 1015.5
20260507040247 65 37 0.0 0.0 0.00 0.00 0.00 64 1015.5
20260507040044 64 89 2.0 4.0 0.00 0.00 0.00 64 1017.0
20260507035817 65 36 0.0 0.0 0.00 0.00 0.00 64 1015.3
20260507035734 65 36 0.0 0.0 0.00 0.00 0.00 63 1015.3
20260507035644 65 36 0.0 0.0 0.00 0.00 0.00 63 1015.3
20260507035608 65 36 0.0 0.0 0.00 0.00 0.00 63 1015.3
20260507035541 64 126 3.0 4.0 0.00 0.00 0.00 64 1017.0
20260507035531 65 36 0.0 0.0 0.00 0.00 0.00 63 1015.3
20260507035448 65 36 0.0 0.0 0.00 0.00 0.00 63 1015.3
20260507035404 65 36 0.0 0.0 0.00 0.00 0.00 63 1015.3
20260507035334 65 36 0.0 0.0 0.00 0.00 0.00 62 1015.3
20260507035306 65 36 0.0 1.0 0.00 0.00 0.00 62 1015.3
20260507035226 65 4 0.0 0.0 0.00 0.00 0.00 63 1015.2
20260507035038 65 4 0.0 0.0 0.00 0.00 0.00 62 1015.2
20260507034956 65 4 0.0 0.0 0.00 0.00 0.00 63 1015.2
20260507034920 65 4 0.0 0.0 0.00 0.00 0.00 63 1015.2
20260507034837 65 4 0.0 0.0 0.00 0.00 0.00 62 1015.2
20260507034800 65 4 0.0 0.0 0.00 0.00 0.00 62 1015.2
20260507034534 66 4 0.0 0.0 0.00 0.00 0.00 62 1015.2
20260507034457 66 4 0.0 0.0 0.00 0.00 0.00 62 1015.2
20260507034420 66 4 0.0 0.0 0.00 0.00 0.00 62 1015.2
20260507034356 66 4 0.0 0.0 0.00 0.00 0.00 62 1015.2
20260507034326 66 4 0.0 1.0 0.00 0.00 0.00 62 1015.2
20260507034235 66 11 2.0 0.0 0.00 0.00 0.00 62 1015.0
20260507034159 66 11 2.0 0.0 0.00 0.00 0.00 62 1015.0
20260507034135 66 11 2.0 0.0 0.00 0.00 0.00 62 1015.0
20260507034103 66 11 2.0 0.0 0.00 0.00 0.00 61 1015.0
20260507034032 64 89 0.0 1.0 0.00 0.00 0.00 67 1016.6
20260507033856 66 11 2.0 0.0 0.00 0.00 0.00 61 1015.0
20260507033832 66 11 2.0 0.0 0.00 0.00 0.00 62 1015.0
20260507033808 66 11 2.0 0.0 0.00 0.00 0.00 61 1015.0
20260507033600 66 11 2.0 0.0 0.00 0.00 0.00 61 1015.0
20260507033530 64 49 2.0 2.0 0.00 0.00 0.00 66 1016.8
20260507033511 66 11 2.0 0.0 0.00 0.00 0.00 61 1015.0
20260507033309 66 11 2.0 0.0 0.00 0.00 0.00 61 1015.0
20260507033239 66 11 2.0 2.0 0.00 0.00 0.00 61 1015.0
20260507033147 66 324 2.0 0.0 0.00 0.00 0.00 61 1014.8
20260507033110 66 324 2.0 0.0 0.00 0.00 0.00 61 1014.8
20260507033046 66 324 2.0 0.0 0.00 0.00 0.00 61 1014.8
20260507033027 64 98 1.0 2.0 0.00 0.00 0.00 66 1016.4
20260507033014 67 324 2.0 0.0 0.00 0.00 0.00 61 1014.8
20260507032950 67 324 2.0 0.0 0.00 0.00 0.00 60 1014.8
20260507032920 67 324 2.0 0.0 0.00 0.00 0.00 61 1014.8
20260507032843 67 324 2.0 0.0 0.00 0.00 0.00 61 1014.8
20260507032615 67 324 2.0 0.0 0.00 0.00 0.00 61 1014.8
20260507032538 67 324 2.0 0.0 0.00 0.00 0.00 60 1014.8
20260507032524 64 322 0.0 3.0 0.00 0.00 0.00 65 1016.5
20260507032514 67 324 2.0 0.0 0.00 0.00 0.00 60 1014.8
20260507032450 67 324 2.0 0.0 0.00 0.00 0.00 61 1014.8
20260507032420 67 324 2.0 0.0 0.00 0.00 0.00 60 1014.8
20260507032350 67 324 2.0 3.0 0.00 0.00 0.00 60 1014.8
20260507032300 67 352 0.0 0.0 0.00 0.00 0.00 60 1015.0
20260507032217 67 352 0.0 0.0 0.00 0.00 0.00 60 1015.0
20260507032140 67 352 0.0 0.0 0.00 0.00 0.00 60 1015.0
20260507032057 67 352 0.0 0.0 0.00 0.00 0.00 60 1015.0
20260507032020 64 129 0.0 1.0 0.00 0.00 0.00 65 1016.3
20260507031831 67 352 0.0 0.0 0.00 0.00 0.00 60 1015.0
20260507031754 67 352 0.0 0.0 0.00 0.00 0.00 60 1015.0
20260507031703 67 352 0.0 0.0 0.00 0.00 0.00 60 1015.0
20260507031626 67 352 0.0 0.0 0.00 0.00 0.00 60 1015.0
20260507031603 67 352 0.0 0.0 0.00 0.00 0.00 60 1015.0
20260507031532 67 352 0.0 2.0 0.00 0.00 0.00 60 1015.0
20260507031516 65 49 0.0 0.0 0.00 0.00 0.00 64 1016.5
20260507031443 68 350 0.0 0.0 0.00 0.00 0.00 59 1014.5
20260507031406 68 350 0.0 0.0 0.00 0.00 0.00 59 1014.5
20260507031316 68 350 0.0 0.0 0.00 0.00 0.00 59 1014.5
20260507031240 68 350 0.0 0.0 0.00 0.00 0.00 59 1014.5
20260507031014 65 41 0.0 1.0 0.00 0.00 0.00 64 1016.3
20260507031007 68 350 0.0 0.0 0.00 0.00 0.00 59 1014.5
20260507030917 68 350 0.0 0.0 0.00 0.00 0.00 59 1014.5
20260507030841 68 350 0.0 0.0 0.00 0.00 0.00 59 1014.5
20260507030634 69 350 0.0 0.0 0.00 0.00 0.00 59 1014.5
20260507030603 69 350 0.0 2.0 0.00 0.00 0.00 58 1014.5
20260507030510 65 129 0.0 0.0 0.00 0.00 0.00 63 1016.0
20260507030506 69 17 1.0 0.0 0.00 0.00 0.00 58 1014.5
20260507030443 69 17 1.0 0.0 0.00 0.00 0.00 59 1014.5
20260507030400 69 17 1.0 0.0 0.00 0.00 0.00 58 1014.5
20260507030316 69 17 1.0 0.0 0.00 0.00 0.00 58 1014.5
20260507030042 69 17 1.0 0.0 0.00 0.00 0.00 58 1014.5
20260507030008 65 350 0.0 2.0 0.00 0.00 0.00 62 1016.3
20260507030005 69 17 1.0 0.0 0.00 0.00 0.00 58 1014.5
20260507025929 69 17 1.0 0.0 0.00 0.00 0.00 58 1014.5
20260507025845 69 17 1.0 0.0 0.00 0.00 0.00 58 1014.5
20260507025809 69 17 1.0 0.0 0.00 0.00 0.00 58 1014.5
20260507025738 69 17 1.0 0.0 0.00 0.00 0.00 57 1014.5
20260507025708 69 17 1.0 2.0 0.00 0.00 0.00 58 1014.5
20260507025504 66 9 1.0 3.0 0.00 0.00 0.00 62 1015.9
20260507025440 69 289 0.0 0.0 0.00 0.00 0.00 58 1014.6
20260507025417 69 289 0.0 0.0 0.00 0.00 0.00 57 1014.6
20260507025340 69 289 0.0 0.0 0.00 0.00 0.00 58 1014.6
20260507025316 69 289 0.0 0.0 0.00 0.00 0.00 58 1014.6
20260507025246 69 289 0.0 0.0 0.00 0.00 0.00 57 1014.6
20260507025031 69 289 0.0 0.0 0.00 0.00 0.00 57 1014.6
20260507025002 66 18 1.0 2.0 0.00 0.00 0.00 62 1015.9
20260507024948 70 289 0.0 0.0 0.00 0.00 0.00 57 1014.6
20260507024911 70 289 0.0 0.0 0.00 0.00 0.00 57 1014.6
20260507024835 70 289 0.0 0.0 0.00 0.00 0.00 57 1014.6
20260507024811 70 289 0.0 0.0 0.00 0.00 0.00 57 1014.6
20260507024741 70 289 0.0 1.0 0.00 0.00 0.00 57 1014.6
20260507024459 66 89 0.0 2.0 0.00 0.00 0.00 62 1016.0
20260507024448 70 292 2.0 0.0 0.00 0.00 0.00 57 1014.6
20260507024045 70 292 2.0 0.0 0.00 0.00 0.00 57 1014.6
20260507023955 66 40 2.0 2.0 0.00 0.00 0.00 61 1015.7
20260507023530 70 292 2.0 0.0 0.00 0.00 0.00 57 1014.6
20260507023452 67 9 2.0 4.0 0.00 0.00 0.00 61 1015.9
20260507023446 70 292 2.0 0.0 0.00 0.00 0.00 57 1014.6
20260507023251 70 292 2.0 3.0 0.00 0.00 0.00 56 1014.6
20260507023202 70 276 0.0 0.0 0.00 0.00 0.00 57 1014.5
20260507023138 70 276 0.0 0.0 0.00 0.00 0.00 57 1014.5
20260507023105 70 276 0.0 0.0 0.00 0.00 0.00 56 1014.5
20260507023022 70 276 0.0 0.0 0.00 0.00 0.00 56 1014.5
20260507022949 67 352 0.0 2.0 0.00 0.00 0.00 60 1015.8
20260507022828 71 276 0.0 0.0 0.00 0.00 0.00 56 1014.5
20260507022751 71 276 0.0 0.0 0.00 0.00 0.00 56 1014.5
20260507022702 71 276 0.0 0.0 0.00 0.00 0.00 56 1014.5
20260507022612 71 276 0.0 0.0 0.00 0.00 0.00 56 1014.5
20260507022548 71 276 0.0 0.0 0.00 0.00 0.00 56 1014.5
20260507022447 67 102 0.0 2.0 0.00 0.00 0.00 60 1015.7
20260507022314 71 276 0.0 0.0 0.00 0.00 0.00 55 1014.5
20260507022250 71 276 0.0 0.0 0.00 0.00 0.00 55 1014.5
20260507022219 71 276 0.0 2.0 0.00 0.00 0.00 55 1014.5
20260507021942 68 82 3.0 3.0 0.00 0.00 0.00 60 1015.5
20260507021744 71 279 1.0 0.0 0.00 0.00 0.00 55 1014.4
20260507021701 71 279 1.0 0.0 0.00 0.00 0.00 55 1014.4
20260507021624 71 279 1.0 0.0 0.00 0.00 0.00 55 1014.4
20260507021550 72 279 1.0 0.0 0.00 0.00 0.00 54 1014.4
20260507021437 68 4 0.0 3.0 0.00 0.00 0.00 59 1015.5
20260507021330 72 279 1.0 0.0 0.00 0.00 0.00 55 1014.4
20260507021300 72 279 1.0 0.0 0.00 0.00 0.00 54 1014.4
20260507021209 72 279 1.0 0.0 0.00 0.00 0.00 54 1014.4
20260507021119 72 279 1.0 0.0 0.00 0.00 0.00 54 1014.4
20260507021055 72 279 1.0 0.0 0.00 0.00 0.00 54 1014.4
20260507021024 73 279 1.0 3.0 0.00 0.00 0.00 53 1014.4
20260507020948 73 49 0.0 0.0 0.00 0.00 0.00 54 1014.3
20260507020935 69 55 0.0 3.0 0.00 0.00 0.00 58 1015.6
20260507020735 73 49 0.0 0.0 0.00 0.00 0.00 53 1014.3
20260507020658 73 49 0.0 0.0 0.00 0.00 0.00 53 1014.3
20260507020628 73 49 0.0 0.0 0.00 0.00 0.00 52 1014.3
20260507020558 73 49 0.0 0.0 0.00 0.00 0.00 53 1014.3
20260507020507 73 49 0.0 0.0 0.00 0.00 0.00 53 1014.3
20260507020432 69 324 1.0 2.0 0.00 0.00 0.00 58 1015.5
20260507020430 73 49 0.0 0.0 0.00 0.00 0.00 53 1014.3
20260507020321 73 49 0.0 0.0 0.00 0.00 0.00 53 1014.3
20260507020238 73 49 0.0 0.0 0.00 0.00 0.00 53 1014.3
20260507020208 73 49 0.0 0.0 0.00 0.00 0.00 53 1014.3
20260507020137 73 49 0.0 0.0 0.00 0.00 0.00 54 1014.3
20260507015943 73 49 0.0 2.0 0.00 0.00 0.00 54 1014.3
20260507015929 69 182 0.0 2.0 0.00 0.00 0.00 57 1015.6
20260507015853 73 316 0.0 0.0 0.00 0.00 0.00 54 1014.5
20260507015823 73 316 0.0 0.0 0.00 0.00 0.00 53 1014.5
20260507015800 73 316 0.0 0.0 0.00 0.00 0.00 54 1014.5
20260507015736 73 316 0.0 0.0 0.00 0.00 0.00 54 1014.5
20260507015712 73 316 0.0 0.0 0.00 0.00 0.00 53 1014.5
20260507015623 73 316 0.0 0.0 0.00 0.00 0.00 53 1014.5
20260507015546 73 316 0.0 0.0 0.00 0.00 0.00 53 1014.5
20260507015509 73 316 0.0 0.0 0.00 0.00 0.00 53 1014.5
20260507015427 69 15 0.0 2.0 0.00 0.00 0.00 57 1015.5
20260507015125 73 316 0.0 0.0 0.00 0.00 0.00 54 1014.5
20260507015101 73 316 0.0 0.0 0.00 0.00 0.00 53 1014.5
20260507015037 73 316 0.0 0.0 0.00 0.00 0.00 54 1014.5
20260507015005 73 316 0.0 0.0 0.00 0.00 0.00 53 1014.5
20260507014941 73 316 0.0 0.0 0.00 0.00 0.00 53 1014.5
20260507014924 70 230 0.0 3.0 0.00 0.00 0.00 57 1015.4
20260507014910 73 316 0.0 2.0 0.00 0.00 0.00 54 1014.5
20260507014820 73 228 2.0 0.0 0.00 0.00 0.00 54 1014.5
20260507014744 73 228 2.0 0.0 0.00 0.00 0.00 54 1014.5
20260507014647 73 228 2.0 0.0 0.00 0.00 0.00 53 1014.5
20260507014624 73 228 2.0 0.0 0.00 0.00 0.00 54 1014.5
20260507014553 73 228 2.0 0.0 0.00 0.00 0.00 53 1014.5
20260507014420 70 282 0.0 3.0 0.00 0.00 0.00 57 1015.4
20260507014326 73 228 2.0 0.0 0.00 0.00 0.00 53 1014.5
20260507014256 73 228 2.0 0.0 0.00 0.00 0.00 53 1014.5
20260507014226 74 228 2.0 0.0 0.00 0.00 0.00 52 1014.5
20260507014150 74 228 2.0 0.0 0.00 0.00 0.00 52 1014.5
20260507014126 74 228 2.0 0.0 0.00 0.00 0.00 52 1014.5
20260507014055 74 228 2.0 0.0 0.00 0.00 0.00 53 1014.5
20260507014031 74 228 2.0 0.0 0.00 0.00 0.00 53 1014.5
20260507014000 73 228 2.0 2.0 0.00 0.00 0.00 53 1014.5
20260507013917 70 253 3.0 3.0 0.00 0.00 0.00 56 1015.4
20260507013910 73 33 2.0 0.0 0.00 0.00 0.00 53 1014.3
20260507013847 73 33 2.0 0.0 0.00 0.00 0.00 53 1014.3
20260507013817 74 33 2.0 0.0 0.00 0.00 0.00 53 1014.3
20260507013739 74 33 2.0 0.0 0.00 0.00 0.00 53 1014.3
20260507013709 74 33 2.0 0.0 0.00 0.00 0.00 52 1014.3
20260507013645 74 33 2.0 0.0 0.00 0.00 0.00 53 1014.3
20260507013602 74 33 2.0 0.0 0.00 0.00 0.00 52 1014.3
20260507013512 74 33 2.0 0.0 0.00 0.00 0.00 52 1014.3
20260507013436 74 33 2.0 0.0 0.00 0.00 0.00 52 1014.3
20260507013414 71 9 0.0 3.0 0.00 0.00 0.00 56 1015.3
20260507013346 74 33 2.0 0.0 0.00 0.00 0.00 52 1014.3
20260507013316 74 33 2.0 0.0 0.00 0.00 0.00 51 1014.3
20260507012951 75 33 2.0 2.0 0.00 0.00 0.00 52 1014.3
20260507012911 71 349 2.0 3.0 0.00 0.00 0.00 55 1015.4
20260507012745 75 353 1.0 0.0 0.00 0.00 0.00 51 1014.1
20260507012655 75 353 1.0 0.0 0.00 0.00 0.00 51 1014.1
20260507012612 75 353 1.0 0.0 0.00 0.00 0.00 51 1014.1
20260507012528 75 353 1.0 0.0 0.00 0.00 0.00 51 1014.1
20260507012438 76 353 1.0 0.0 0.00 0.00 0.00 51 1014.1
20260507012408 72 346 3.0 3.0 0.00 0.00 0.00 55 1015.5
20260507012351 75 353 1.0 0.0 0.00 0.00 0.00 51 1014.1
20260507012306 75 353 1.0 0.0 0.00 0.00 0.00 50 1014.1
20260507011904 73 304 1.0 3.0 0.00 0.00 0.00 53 1015.3
20260507011854 77 353 1.0 0.0 0.00 0.00 0.00 49 1014.1
20260507011654 77 353 1.0 2.0 0.00 0.00 0.00 49 1014.1
20260507011604 77 318 2.0 0.0 0.00 0.00 0.00 49 1014.2
20260507011534 77 318 2.0 0.0 0.00 0.00 0.00 48 1014.2
20260507011448 78 318 2.0 0.0 0.00 0.00 0.00 48 1014.2
20260507011404 78 318 2.0 0.0 0.00 0.00 0.00 47 1014.2
20260507011401 73 339 2.0 3.0 0.00 0.00 0.00 53 1015.3
20260507011321 78 318 2.0 0.0 0.00 0.00 0.00 48 1014.2
20260507011251 77 318 2.0 0.0 0.00 0.00 0.00 48 1014.2
20260507011227 78 318 2.0 0.0 0.00 0.00 0.00 48 1014.2
20260507011121 78 318 2.0 0.0 0.00 0.00 0.00 48 1014.2
20260507010901 73 20 1.0 3.0 0.00 0.00 0.00 54 1015.3
20260507010829 77 318 2.0 0.0 0.00 0.00 0.00 49 1014.2
20260507010746 77 318 2.0 0.0 0.00 0.00 0.00 49 1014.2
20260507010716 77 318 2.0 0.0 0.00 0.00 0.00 49 1014.2
20260507010357 73 299 2.0 2.0 0.00 0.00 0.00 53 1015.4
20260507010300 77 298 2.0 0.0 0.00 0.00 0.00 48 1014.2
20260507010236 77 298 2.0 0.0 0.00 0.00 0.00 48 1014.2
20260507010212 78 298 2.0 0.0 0.00 0.00 0.00 48 1014.2
20260507010129 78 298 2.0 0.0 0.00 0.00 0.00 48 1014.2
20260507010033 77 298 2.0 0.0 0.00 0.00 0.00 48 1014.2
20260507005957 77 298 2.0 0.0 0.00 0.00 0.00 48 1014.2
20260507005926 77 298 2.0 0.0 0.00 0.00 0.00 49 1014.2
20260507005856 77 298 2.0 0.0 0.00 0.00 0.00 48 1014.2
20260507005854 73 338 2.0 4.0 0.00 0.00 0.00 54 1015.3
20260507005819 77 298 2.0 0.0 0.00 0.00 0.00 48 1014.2
20260507005736 77 298 2.0 0.0 0.00 0.00 0.00 48 1014.2
20260507005705 77 298 2.0 0.0 0.00 0.00 0.00 49 1014.2
20260507005634 77 298 2.0 2.0 0.00 0.00 0.00 48 1014.2
20260507005558 77 332 2.0 0.0 0.00 0.00 0.00 48 1014.2
20260507005351 73 334 1.0 4.0 0.00 0.00 0.00 53 1015.2
20260507005011 78 332 2.0 0.0 0.00 0.00 0.00 47 1014.2
20260507004847 73 18 2.0 3.0 0.00 0.00 0.00 53 1015.2
20260507004824 78 332 2.0 0.0 0.00 0.00 0.00 46 1014.2
20260507004753 78 332 2.0 0.0 0.00 0.00 0.00 47 1014.2
20260507004729 78 332 2.0 0.0 0.00 0.00 0.00 46 1014.2
20260507004632 78 332 2.0 0.0 0.00 0.00 0.00 47 1014.2
20260507004555 78 332 2.0 0.0 0.00 0.00 0.00 47 1014.2
20260507004512 78 332 2.0 0.0 0.00 0.00 0.00 47 1014.2
20260507004345 74 228 2.0 3.0 0.00 0.00 0.00 52 1015.3
20260507004129 78 306 2.0 0.0 0.00 0.00 0.00 46 1014.3
20260507004058 78 306 2.0 0.0 0.00 0.00 0.00 47 1014.3
20260507004022 78 306 2.0 0.0 0.00 0.00 0.00 47 1014.3
20260507003932 79 306 2.0 0.0 0.00 0.00 0.00 46 1014.3
20260507003855 79 306 2.0 0.0 0.00 0.00 0.00 46 1014.3
20260507003842 75 238 3.0 4.0 0.00 0.00 0.00 51 1015.4
20260507003819 79 306 2.0 0.0 0.00 0.00 0.00 47 1014.3
20260507003755 79 306 2.0 0.0 0.00 0.00 0.00 47 1014.3
20260507003724 79 306 2.0 0.0 0.00 0.00 0.00 46 1014.3
20260507003445 79 306 2.0 0.0 0.00 0.00 0.00 46 1014.3
20260507003408 79 306 2.0 0.0 0.00 0.00 0.00 46 1014.3
20260507003344 79 306 2.0 0.0 0.00 0.00 0.00 46 1014.3
20260507003337 75 304 0.0 4.0 0.00 0.00 0.00 51 1015.3
20260507003314 79 306 2.0 4.0 0.00 0.00 0.00 46 1014.3
20260507003237 79 285 2.0 0.0 0.00 0.00 0.00 46 1014.1
20260507003203 78 285 2.0 0.0 0.00 0.00 0.00 46 1014.1
20260507003002 78 285 2.0 0.0 0.00 0.00 0.00 46 1014.1
20260507002938 79 285 2.0 0.0 0.00 0.00 0.00 45 1014.1
20260507002832 77 271 2.0 5.0 0.00 0.00 0.00 48 1015.3
20260507002711 78 285 2.0 0.0 0.00 0.00 0.00 46 1014.1
20260507002634 78 285 2.0 0.0 0.00 0.00 0.00 46 1014.1
20260507002557 78 285 2.0 0.0 0.00 0.00 0.00 46 1014.1
20260507002520 78 285 2.0 0.0 0.00 0.00 0.00 46 1014.1
20260507002450 78 285 2.0 0.0 0.00 0.00 0.00 45 1014.1
20260507002329 78 327 2.0 3.0 0.00 0.00 0.00 48 1015.2
20260507002255 78 285 2.0 0.0 0.00 0.00 0.00 46 1014.1
20260507002225 78 285 2.0 3.0 0.00 0.00 0.00 46 1014.1
20260507002135 78 292 2.0 0.0 0.00 0.00 0.00 46 1014.3
20260507002045 78 292 2.0 0.0 0.00 0.00 0.00 46 1014.3
20260507002007 78 292 2.0 0.0 0.00 0.00 0.00 47 1014.3
20260507001937 78 292 2.0 0.0 0.00 0.00 0.00 46 1014.3
20260507001826 77 263 2.0 6.0 0.00 0.00 0.00 48 1015.2
20260507001743 79 292 2.0 0.0 0.00 0.00 0.00 45 1014.3
20260507001646 79 292 2.0 0.0 0.00 0.00 0.00 45 1014.3
20260507001433 79 292 2.0 0.0 0.00 0.00 0.00 45 1014.3
20260507001349 80 292 2.0 0.0 0.00 0.00 0.00 44 1014.3
20260507001323 77 358 2.0 5.0 0.00 0.00 0.00 49 1015.2
20260507001247 80 292 2.0 0.0 0.00 0.00 0.00 44 1014.3
20260507001223 80 292 2.0 0.0 0.00 0.00 0.00 44 1014.3
20260507001153 80 292 2.0 3.0 0.00 0.00 0.00 44 1014.3
20260507001057 80 261 1.0 0.0 0.00 0.00 0.00 44 1014.3
20260507001012 80 261 1.0 0.0 0.00 0.00 0.00 44 1014.3
20260507000819 78 316 0.0 4.0 0.00 0.00 0.00 48 1015.4
20260507000804 80 261 1.0 0.0 0.00 0.00 0.00 45 1014.3
20260507000740 80 261 1.0 0.0 0.00 0.00 0.00 44 1014.3
20260507000717 80 261 1.0 0.0 0.00 0.00 0.00 45 1014.3
20260507000653 80 261 1.0 0.0 0.00 0.00 0.00 44 1014.3
20260507000442 79 261 1.0 0.0 0.00 0.00 0.00 45 1014.3
20260507000409 79 261 1.0 0.0 0.00 0.00 0.00 44 1014.3
20260507000339 79 261 1.0 0.0 0.00 0.00 0.00 45 1014.3
20260507000315 78 313 2.0 4.0 0.00 0.00 0.00 46 1015.1
20260507000302 79 261 1.0 0.0 0.00 0.00 0.00 45 1014.3
20260507000234 79 261 1.0 0.0 0.00 0.00 0.00 45 1014.3
20260507000149 79 261 1.0 0.0 0.00 0.00 0.00 44 1014.3
20260507000126 79 261 1.0 0.0 0.00 0.00 0.00 44 1014.3
20260507000055 79 261 1.0 3.0 0.00 0.00 0.00 45 1014.3
20260506235832 79 271 3.0 0.0 0.00 0.00 0.00 45 1014.3
20260506235812 78 249 1.0 7.0 0.00 0.00 0.00 47 1015.1
20260506235802 79 271 3.0 0.0 0.00 0.00 0.00 46 1014.3
20260506235738 79 271 3.0 0.0 0.00 0.00 0.00 46 1014.3
20260506235531 79 271 3.0 0.0 0.00 0.00 0.00 45 1014.3
20260506235507 79 271 3.0 0.0 0.00 0.00 0.00 45 1014.3
20260506235437 78 271 3.0 0.0 0.00 0.00 0.00 46 1014.3
20260506235347 78 271 3.0 0.0 0.00 0.00 0.00 46 1014.3
20260506235311 78 271 3.0 0.0 0.00 0.00 0.00 46 1014.3
20260506235308 79 322 4.0 5.0 0.00 0.00 0.00 46 1015.3
20260506235241 79 271 3.0 0.0 0.00 0.00 0.00 45 1014.3
20260506235211 80 271 3.0 0.0 0.00 0.00 0.00 44 1014.3
20260506235128 80 271 3.0 0.0 0.00 0.00 0.00 43 1014.3
20260506235058 80 271 3.0 0.0 0.00 0.00 0.00 44 1014.3
20260506235028 80 271 3.0 4.0 0.00 0.00 0.00 44 1014.3
20260506234938 79 278 3.0 0.0 0.00 0.00 0.00 45 1014.4
20260506234908 80 278 3.0 0.0 0.00 0.00 0.00 44 1014.4
20260506234844 80 278 3.0 0.0 0.00 0.00 0.00 45 1014.4
20260506234807 80 278 3.0 0.0 0.00 0.00 0.00 45 1014.4
20260506234805 78 264 4.0 4.0 0.00 0.00 0.00 46 1015.1
20260506234731 80 278 3.0 0.0 0.00 0.00 0.00 44 1014.4
20260506234701 80 278 3.0 0.0 0.00 0.00 0.00 45 1014.4
20260506234441 80 278 3.0 0.0 0.00 0.00 0.00 44 1014.4
20260506234358 80 278 3.0 0.0 0.00 0.00 0.00 44 1014.4
20260506234302 78 278 3.0 4.0 0.00 0.00 0.00 46 1015.1
20260506234203 80 278 3.0 0.0 0.00 0.00 0.00 45 1014.4
20260506234120 80 278 3.0 0.0 0.00 0.00 0.00 44 1014.4
20260506234051 80 278 3.0 0.0 0.00 0.00 0.00 45 1014.4
20260506234012 80 278 3.0 3.0 0.00 0.00 0.00 44 1014.4
20260506233922 80 254 4.0 0.0 0.00 0.00 0.00 44 1014.5
20260506233800 78 284 2.0 10.0 0.00 0.00 0.00 46 1015.2
20260506233728 80 254 4.0 0.0 0.00 0.00 0.00 44 1014.5
20260506233652 80 254 4.0 0.0 0.00 0.00 0.00 44 1014.5
20260506233256 79 249 1.0 5.0 0.00 0.00 0.00 45 1015.0
20260506233242 80 254 4.0 0.0 0.00 0.00 0.00 45 1014.5
20260506233159 80 254 4.0 0.0 0.00 0.00 0.00 45 1014.5
20260506233135 80 254 4.0 0.0 0.00 0.00 0.00 45 1014.5
20260506232939 79 254 4.0 0.0 0.00 0.00 0.00 45 1014.5
20260506232908 80 254 4.0 0.0 0.00 0.00 0.00 44 1014.5
20260506232845 80 254 4.0 0.0 0.00 0.00 0.00 44 1014.5
20260506232814 80 254 4.0 6.0 0.00 0.00 0.00 44 1014.5
20260506232748 80 208 1.0 4.0 0.00 0.00 0.00 44 1015.2
20260506232738 80 331 3.0 0.0 0.00 0.00 0.00 45 1014.4
20260506232714 80 331 3.0 0.0 0.00 0.00 0.00 44 1014.4
20260506232638 80 331 3.0 0.0 0.00 0.00 0.00 45 1014.4
20260506232555 80 331 3.0 0.0 0.00 0.00 0.00 44 1014.4
20260506232452 80 331 3.0 0.0 0.00 0.00 0.00 44 1014.4
20260506232429 80 331 3.0 0.0 0.00 0.00 0.00 45 1014.4
20260506232352 80 331 3.0 0.0 0.00 0.00 0.00 44 1014.4
20260506232256 80 331 3.0 0.0 0.00 0.00 0.00 45 1014.4
20260506232247 79 181 1.0 4.0 0.00 0.00 0.00 45 1015.1
20260506232232 80 331 3.0 0.0 0.00 0.00 0.00 45 1014.4
20260506232202 80 331 3.0 0.0 0.00 0.00 0.00 44 1014.4
20260506232118 81 331 3.0 0.0 0.00 0.00 0.00 44 1014.4
20260506231905 81 331 3.0 0.0 0.00 0.00 0.00 44 1014.4
20260506231835 81 331 3.0 3.0 0.00 0.00 0.00 44 1014.4
20260506231756 81 296 2.0 0.0 0.00 0.00 0.00 45 1014.6
20260506231745 79 39 0.0 5.0 0.00 0.00 0.00 46 1015.2
20260506231733 80 296 2.0 0.0 0.00 0.00 0.00 45 1014.6
20260506231709 80 296 2.0 0.0 0.00 0.00 0.00 45 1014.6
20260506231645 80 296 2.0 0.0 0.00 0.00 0.00 44 1014.6
20260506231554 80 296 2.0 0.0 0.00 0.00 0.00 45 1014.6
20260506231518 80 296 2.0 0.0 0.00 0.00 0.00 45 1014.6
20260506231436 80 296 2.0 0.0 0.00 0.00 0.00 45 1014.6
20260506231243 79 304 4.0 6.0 0.00 0.00 0.00 45 1015.2
20260506231214 80 296 2.0 0.0 0.00 0.00 0.00 45 1014.6
20260506231143 81 296 2.0 0.0 0.00 0.00 0.00 44 1014.6
20260506230942 80 296 2.0 0.0 0.00 0.00 0.00 44 1014.6
20260506230912 81 296 2.0 0.0 0.00 0.00 0.00 45 1014.6
20260506230842 81 296 2.0 0.0 0.00 0.00 0.00 44 1014.6
20260506230740 80 336 2.0 5.0 0.00 0.00 0.00 44 1015.1
20260506230641 80 296 2.0 2.0 0.00 0.00 0.00 45 1014.6
20260506230552 80 290 3.0 0.0 0.00 0.00 0.00 45 1014.8
20260506230515 80 290 3.0 0.0 0.00 0.00 0.00 44 1014.8
20260506230242 80 290 3.0 0.0 0.00 0.00 0.00 45 1014.8
20260506230236 80 290 2.0 4.0 0.00 0.00 0.00 44 1015.2
20260506230206 80 290 3.0 0.0 0.00 0.00 0.00 45 1014.8
20260506230142 80 290 3.0 0.0 0.00 0.00 0.00 45 1014.8
20260506230112 80 290 3.0 0.0 0.00 0.00 0.00 44 1014.8
20260506225823 80 290 3.0 0.0 0.00 0.00 0.00 45 1014.8
20260506225733 80 19 1.0 5.0 0.00 0.00 0.00 45 1015.3
20260506225622 80 290 3.0 0.0 0.00 0.00 0.00 45 1014.8
20260506225546 80 290 3.0 0.0 0.00 0.00 0.00 45 1014.8
20260506225516 80 290 3.0 0.0 0.00 0.00 0.00 44 1014.8
20260506225445 80 290 3.0 5.0 0.00 0.00 0.00 44 1014.8
20260506225408 80 257 4.0 0.0 0.00 0.00 0.00 45 1014.9
20260506225345 80 257 4.0 0.0 0.00 0.00 0.00 44 1014.9
20260506225321 80 257 4.0 0.0 0.00 0.00 0.00 44 1014.9
20260506225257 80 257 4.0 0.0 0.00 0.00 0.00 45 1014.9
20260506225230 80 300 2.0 4.0 0.00 0.00 0.00 45 1015.3
20260506225227 80 257 4.0 0.0 0.00 0.00 0.00 44 1014.9
20260506225204 81 257 4.0 0.0 0.00 0.00 0.00 45 1014.9
20260506225140 81 257 4.0 0.0 0.00 0.00 0.00 45 1014.9
20260506225109 81 257 4.0 0.0 0.00 0.00 0.00 44 1014.9
20260506225046 81 257 4.0 0.0 0.00 0.00 0.00 44 1014.9
20260506224726 80 337 1.0 5.0 0.00 0.00 0.00 45 1015.3
20260506224648 80 257 4.0 0.0 0.00 0.00 0.00 45 1014.9
20260506224618 80 257 4.0 0.0 0.00 0.00 0.00 43 1014.9
20260506224506 80 257 4.0 0.0 0.00 0.00 0.00 44 1014.9
20260506224442 80 257 4.0 0.0 0.00 0.00 0.00 44 1014.9
20260506224412 80 257 4.0 0.0 0.00 0.00 0.00 43 1014.9
20260506224342 80 257 4.0 0.0 0.00 0.00 0.00 44 1014.9
20260506224224 80 8 2.0 5.0 0.00 0.00 0.00 44 1015.4
20260506224135 81 345 2.0 0.0 0.00 0.00 0.00 44 1015.1
20260506224111 80 345 2.0 0.0 0.00 0.00 0.00 44 1015.1
20260506223857 80 345 2.0 0.0 0.00 0.00 0.00 44 1015.1
20260506223807 80 345 2.0 0.0 0.00 0.00 0.00 45 1015.1
20260506223720 80 216 2.0 5.0 0.00 0.00 0.00 44 1015.5
20260506223606 80 345 2.0 0.0 0.00 0.00 0.00 45 1015.1
20260506223524 80 345 2.0 0.0 0.00 0.00 0.00 44 1015.1
20260506223427 80 345 2.0 0.0 0.00 0.00 0.00 44 1015.1
20260506223225 81 345 2.0 0.0 0.00 0.00 0.00 43 1015.1
20260506223216 80 289 1.0 6.0 0.00 0.00 0.00 45 1015.6
20260506223024 81 345 2.0 0.0 0.00 0.00 0.00 43 1015.1
20260506222817 81 248 3.0 0.0 0.00 0.00 0.00 43 1015.0
20260506222754 81 248 3.0 0.0 0.00 0.00 0.00 42 1015.0
20260506222713 80 292 2.0 4.0 0.00 0.00 0.00 45 1015.6
20260506222521 81 248 3.0 0.0 0.00 0.00 0.00 43 1015.0
20260506222425 81 248 3.0 0.0 0.00 0.00 0.00 44 1015.0
20260506222328 81 248 3.0 0.0 0.00 0.00 0.00 43 1015.0
20260506222208 81 275 6.0 6.0 0.00 0.00 0.00 44 1015.5
20260506222134 81 248 3.0 0.0 0.00 0.00 0.00 42 1015.0
20260506222042 81 248 3.0 0.0 0.00 0.00 0.00 42 1015.0
20260506222008 80 248 3.0 0.0 0.00 0.00 0.00 44 1015.0
20260506221938 80 248 3.0 0.0 0.00 0.00 0.00 43 1015.0
20260506221848 80 248 3.0 0.0 0.00 0.00 0.00 43 1015.0
20260506221824 80 248 3.0 0.0 0.00 0.00 0.00 43 1015.0
20260506221754 80 248 3.0 4.0 0.00 0.00 0.00 43 1015.0
20260506221717 80 272 1.0 0.0 0.00 0.00 0.00 43 1015.3
20260506221707 80 279 1.0 5.0 0.00 0.00 0.00 45 1015.7
20260506221647 80 272 1.0 0.0 0.00 0.00 0.00 44 1015.3
20260506221617 80 272 1.0 0.0 0.00 0.00 0.00 43 1015.3
20260506221553 80 272 1.0 0.0 0.00 0.00 0.00 44 1015.3
20260506221457 80 272 1.0 0.0 0.00 0.00 0.00 43 1015.3
20260506221427 81 272 1.0 0.0 0.00 0.00 0.00 43 1015.3
20260506221357 81 272 1.0 0.0 0.00 0.00 0.00 42 1015.3
20260506221204 80 247 3.0 4.0 0.00 0.00 0.00 44 1015.6
20260506221149 82 272 1.0 0.0 0.00 0.00 0.00 42 1015.3
20260506221119 82 272 1.0 0.0 0.00 0.00 0.00 41 1015.3
20260506221049 82 272 1.0 0.0 0.00 0.00 0.00 42 1015.3
20260506220810 82 272 1.0 0.0 0.00 0.00 0.00 42 1015.3
20260506220701 80 252 3.0 4.0 0.00 0.00 0.00 44 1015.7
20260506220608 82 272 1.0 0.0 0.00 0.00 0.00 40 1015.3
20260506220537 82 272 1.0 0.0 0.00 0.00 0.00 41 1015.3
20260506220506 82 272 1.0 2.0 0.00 0.00 0.00 41 1015.3
20260506220429 82 189 5.0 0.0 0.00 0.00 0.00 41 1015.3
20260506220358 82 189 5.0 0.0 0.00 0.00 0.00 42 1015.3
20260506220328 81 189 5.0 0.0 0.00 0.00 0.00 42 1015.3
20260506220258 81 189 5.0 0.0 0.00 0.00 0.00 43 1015.3
20260506220228 81 189 5.0 0.0 0.00 0.00 0.00 42 1015.3
20260506220158 81 189 5.0 0.0 0.00 0.00 0.00 43 1015.3
20260506220156 81 326 2.0 4.0 0.00 0.00 0.00 44 1015.8
20260506220127 80 189 5.0 0.0 0.00 0.00 0.00 43 1015.3
20260506220056 80 189 5.0 0.0 0.00 0.00 0.00 42 1015.3
20260506220026 80 189 5.0 0.0 0.00 0.00 0.00 43 1015.3
20260506215954 80 189 5.0 0.0 0.00 0.00 0.00 44 1015.3
20260506215924 80 189 5.0 0.0 0.00 0.00 0.00 43 1015.3
20260506215854 79 189 5.0 0.0 0.00 0.00 0.00 43 1015.3
20260506215804 79 189 5.0 0.0 0.00 0.00 0.00 42 1015.3
20260506215714 79 189 5.0 0.0 0.00 0.00 0.00 42 1015.3
20260506215653 81 271 1.0 4.0 0.00 0.00 0.00 43 1015.8
20260506215638 79 189 5.0 0.0 0.00 0.00 0.00 42 1015.3
20260506215607 79 189 5.0 0.0 0.00 0.00 0.00 42 1015.3
20260506215537 81 189 5.0 6.0 0.00 0.00 0.00 40 1015.3
20260506215501 81 9 4.0 0.0 0.00 0.00 0.00 40 1015.3
20260506215307 82 9 4.0 0.0 0.00 0.00 0.00 40 1015.3
20260506215148 80 296 2.0 4.0 0.00 0.00 0.00 43 1016.0
20260506215046 81 9 4.0 0.0 0.00 0.00 0.00 42 1015.3
20260506215015 80 9 4.0 0.0 0.00 0.00 0.00 42 1015.3
20260506214815 80 9 4.0 0.0 0.00 0.00 0.00 41 1015.3
20260506214645 80 234 3.0 6.0 0.00 0.00 0.00 43 1016.0
20260506214608 80 9 4.0 0.0 0.00 0.00 0.00 42 1015.3
20260506214538 80 9 4.0 0.0 0.00 0.00 0.00 41 1015.3
20260506214514 81 9 4.0 0.0 0.00 0.00 0.00 42 1015.3
20260506214425 81 9 4.0 0.0 0.00 0.00 0.00 41 1015.3
20260506214329 81 9 4.0 0.0 0.00 0.00 0.00 42 1015.3
20260506214143 82 289 2.0 3.0 0.00 0.00 0.00 41 1016.0
20260506214128 81 9 4.0 4.0 0.00 0.00 0.00 41 1015.3
20260506214051 81 343 2.0 0.0 0.00 0.00 0.00 40 1015.6
20260506213851 80 343 2.0 0.0 0.00 0.00 0.00 41 1015.6
20260506213819 80 343 2.0 0.0 0.00 0.00 0.00 42 1015.6
20260506213756 80 343 2.0 0.0 0.00 0.00 0.00 42 1015.6
20260506213725 80 343 2.0 0.0 0.00 0.00 0.00 43 1015.6
20260506213654 80 343 2.0 0.0 0.00 0.00 0.00 42 1015.6
20260506213641 81 237 3.0 4.0 0.00 0.00 0.00 43 1016.4
20260506213624 80 343 2.0 0.0 0.00 0.00 0.00 43 1015.6
20260506213553 79 343 2.0 0.0 0.00 0.00 0.00 43 1015.6
20260506213524 79 343 2.0 0.0 0.00 0.00 0.00 42 1015.6
20260506213304 79 343 2.0 0.0 0.00 0.00 0.00 42 1015.6
20260506213240 79 343 2.0 0.0 0.00 0.00 0.00 42 1015.6
20260506213216 79 343 2.0 0.0 0.00 0.00 0.00 43 1015.6
20260506213138 79 43 2.0 7.0 0.00 0.00 0.00 42 1016.0
20260506213127 79 343 2.0 0.0 0.00 0.00 0.00 42 1015.6
20260506213057 79 343 2.0 0.0 0.00 0.00 0.00 42 1015.6
20260506213026 80 343 2.0 4.0 0.00 0.00 0.00 42 1015.6
20260506212948 80 303 2.0 0.0 0.00 0.00 0.00 42 1015.5
20260506212917 80 303 2.0 0.0 0.00 0.00 0.00 43 1015.5
20260506212635 80 268 1.0 2.0 0.00 0.00 0.00 42 1016.4
20260506212625 79 303 2.0 0.0 0.00 0.00 0.00 42 1015.5
20260506212424 78 303 2.0 0.0 0.00 0.00 0.00 42 1015.5
20260506212341 78 303 2.0 0.0 0.00 0.00 0.00 42 1015.5
20260506212318 78 303 2.0 0.0 0.00 0.00 0.00 43 1015.5
20260506212130 81 0 1.0 4.0 0.00 0.00 0.00 42 1016.3
20260506212117 78 303 2.0 0.0 0.00 0.00 0.00 43 1015.5
20260506212048 77 303 2.0 0.0 0.00 0.00 0.00 42 1015.5
20260506211949 78 303 2.0 0.0 0.00 0.00 0.00 42 1015.5
20260506211919 78 303 2.0 0.0 0.00 0.00 0.00 42 1015.5
20260506211847 78 303 2.0 0.0 0.00 0.00 0.00 41 1015.5
20260506211817 78 303 2.0 0.0 0.00 0.00 0.00 42 1015.5
20260506211626 80 252 2.0 4.0 0.00 0.00 0.00 42 1016.5
20260506211557 78 304 1.0 0.0 0.00 0.00 0.00 42 1015.5
20260506211507 78 304 1.0 0.0 0.00 0.00 0.00 43 1015.5
20260506211411 78 304 1.0 0.0 0.00 0.00 0.00 43 1015.5
20260506211341 78 304 1.0 0.0 0.00 0.00 0.00 44 1015.5
20260506211310 78 304 1.0 0.0 0.00 0.00 0.00 43 1015.5
20260506211214 77 304 1.0 0.0 0.00 0.00 0.00 43 1015.5
20260506211123 79 277 4.0 4.0 0.00 0.00 0.00 42 1016.3
20260506210837 78 304 1.0 0.0 0.00 0.00 0.00 41 1015.5
20260506210741 78 304 1.0 0.0 0.00 0.00 0.00 41 1015.5
20260506210658 79 304 1.0 0.0 0.00 0.00 0.00 41 1015.5
20260506210628 78 304 1.0 0.0 0.00 0.00 0.00 42 1015.5
20260506210620 79 5 0.0 2.0 0.00 0.00 0.00 41 1016.5
20260506210545 78 304 1.0 2.0 0.00 0.00 0.00 43 1015.5
20260506210509 78 192 3.0 0.0 0.00 0.00 0.00 43 1015.8
20260506210315 77 192 3.0 0.0 0.00 0.00 0.00 43 1015.8
20260506210245 78 192 3.0 0.0 0.00 0.00 0.00 42 1015.8
20260506210116 78 253 3.0 6.0 0.00 0.00 0.00 42 1016.6
20260506205911 78 192 3.0 0.0 0.00 0.00 0.00 44 1015.8
20260506205841 78 192 3.0 0.0 0.00 0.00 0.00 43 1015.8
20260506205811 78 192 3.0 0.0 0.00 0.00 0.00 42 1015.8
20260506205741 78 192 3.0 0.0 0.00 0.00 0.00 43 1015.8
20260506205658 78 192 3.0 0.0 0.00 0.00 0.00 42 1015.8
20260506205613 78 267 4.0 5.0 0.00 0.00 0.00 43 1016.2
20260506205602 77 192 3.0 0.0 0.00 0.00 0.00 43 1015.8
20260506205532 77 192 3.0 0.0 0.00 0.00 0.00 43 1015.8
20260506205502 77 192 3.0 0.0 0.00 0.00 0.00 44 1015.8
20260506205431 76 192 3.0 0.0 0.00 0.00 0.00 44 1015.8
20260506205408 77 192 3.0 0.0 0.00 0.00 0.00 43 1015.8
20260506205337 76 192 3.0 0.0 0.00 0.00 0.00 44 1015.8
20260506205306 76 192 3.0 3.0 0.00 0.00 0.00 43 1015.8
20260506205203 76 143 4.0 0.0 0.00 0.00 0.00 44 1015.8
20260506205108 79 161 1.0 2.0 0.00 0.00 0.00 42 1016.7
20260506205006 76 143 4.0 0.0 0.00 0.00 0.00 45 1015.8
20260506204804 75 143 4.0 0.0 0.00 0.00 0.00 44 1015.8
20260506204721 75 143 4.0 0.0 0.00 0.00 0.00 44 1015.8
20260506204645 75 143 4.0 0.0 0.00 0.00 0.00 44 1015.8
20260506204621 75 143 4.0 0.0 0.00 0.00 0.00 45 1015.8
20260506204606 78 323 2.0 5.0 0.00 0.00 0.00 43 1016.6
20260506204558 75 143 4.0 0.0 0.00 0.00 0.00 44 1015.8
20260506204528 75 143 4.0 0.0 0.00 0.00 0.00 45 1015.8
20260506204458 75 143 4.0 0.0 0.00 0.00 0.00 44 1015.8
20260506204415 74 143 4.0 0.0 0.00 0.00 0.00 45 1015.8
20260506204319 75 143 4.0 0.0 0.00 0.00 0.00 44 1015.8
20260506204103 77 247 4.0 4.0 0.00 0.00 0.00 43 1016.6
20260506203915 75 233 5.0 0.0 0.00 0.00 0.00 45 1016.1
20260506203832 75 233 5.0 0.0 0.00 0.00 0.00 44 1016.1
20260506203802 75 233 5.0 0.0 0.00 0.00 0.00 44 1016.1
20260506203732 75 233 5.0 0.0 0.00 0.00 0.00 43 1016.1
20260506203702 75 233 5.0 0.0 0.00 0.00 0.00 44 1016.1
20260506203632 76 233 5.0 0.0 0.00 0.00 0.00 44 1016.1
20260506203608 76 233 5.0 0.0 0.00 0.00 0.00 43 1016.1
20260506203602 75 225 3.0 5.0 0.00 0.00 0.00 44 1016.6
20260506203538 76 233 5.0 0.0 0.00 0.00 0.00 44 1016.1
20260506203514 76 233 5.0 0.0 0.00 0.00 0.00 44 1016.1
20260506203444 75 233 5.0 0.0 0.00 0.00 0.00 45 1016.1
20260506203348 75 233 5.0 0.0 0.00 0.00 0.00 46 1016.1
20260506203154 74 233 5.0 0.0 0.00 0.00 0.00 44 1016.1
20260506203124 74 233 5.0 0.0 0.00 0.00 0.00 45 1016.1
20260506203057 75 198 3.0 6.0 0.00 0.00 0.00 44 1016.8
20260506202924 75 233 5.0 0.0 0.00 0.00 0.00 45 1016.1
20260506202853 75 233 5.0 8.0 0.00 0.00 0.00 45 1016.1
20260506202816 75 185 4.0 0.0 0.00 0.00 0.00 46 1016.1
20260506202746 74 185 4.0 0.0 0.00 0.00 0.00 45 1016.1
20260506202650 74 185 4.0 0.0 0.00 0.00 0.00 45 1016.1
20260506202626 74 185 4.0 0.0 0.00 0.00 0.00 46 1016.1
20260506202602 74 185 4.0 0.0 0.00 0.00 0.00 45 1016.1
20260506202555 76 187 1.0 4.0 0.00 0.00 0.00 44 1017.0
20260506202539 74 185 4.0 0.0 0.00 0.00 0.00 45 1016.1
20260506202515 74 185 4.0 0.0 0.00 0.00 0.00 46 1016.1
20260506202451 74 185 4.0 0.0 0.00 0.00 0.00 45 1016.1
20260506202421 73 185 4.0 0.0 0.00 0.00 0.00 45 1016.1
20260506202051 75 195 2.0 8.0 0.00 0.00 0.00 45 1017.0
20260506202038 74 185 4.0 0.0 0.00 0.00 0.00 45 1016.1
20260506201937 74 185 4.0 0.0 0.00 0.00 0.00 46 1016.1
20260506201854 73 185 4.0 0.0 0.00 0.00 0.00 46 1016.1
20260506201824 73 185 4.0 0.0 0.00 0.00 0.00 45 1016.1
20260506201754 74 185 4.0 6.0 0.00 0.00 0.00 45 1016.1
20260506201718 74 124 8.0 0.0 0.00 0.00 0.00 46 1016.2
20260506201647 74 124 8.0 0.0 0.00 0.00 0.00 45 1016.2
20260506201611 74 124 8.0 0.0 0.00 0.00 0.00 45 1016.2
20260506201549 74 203 2.0 5.0 0.00 0.00 0.00 46 1017.1
20260506201534 74 124 8.0 0.0 0.00 0.00 0.00 45 1016.2
20260506201444 74 124 8.0 0.0 0.00 0.00 0.00 45 1016.2
20260506201354 74 124 8.0 0.0 0.00 0.00 0.00 45 1016.2
20260506201200 74 124 8.0 0.0 0.00 0.00 0.00 45 1016.2
20260506201130 74 124 8.0 0.0 0.00 0.00 0.00 44 1016.2
20260506201100 74 124 8.0 0.0 0.00 0.00 0.00 46 1016.2
20260506201045 73 160 2.0 8.0 0.00 0.00 0.00 46 1017.1
20260506201011 74 124 8.0 0.0 0.00 0.00 0.00 45 1016.2
20260506200639 73 124 8.0 0.0 0.00 0.00 0.00 46 1016.2
20260506200609 74 124 8.0 0.0 0.00 0.00 0.00 45 1016.2
20260506200542 74 212 4.0 6.0 0.00 0.00 0.00 45 1017.2
20260506200539 74 124 8.0 9.0 0.00 0.00 0.00 45 1016.2
20260506200436 74 164 4.0 0.0 0.00 0.00 0.00 45 1016.2
20260506200406 74 164 4.0 0.0 0.00 0.00 0.00 46 1016.2
20260506200038 73 216 1.0 9.0 0.00 0.00 0.00 46 1017.2
20260506200032 73 164 4.0 0.0 0.00 0.00 0.00 46 1016.2
20260506195943 73 164 4.0 0.0 0.00 0.00 0.00 46 1016.2
20260506195742 73 164 4.0 0.0 0.00 0.00 0.00 47 1016.2
20260506195653 73 164 4.0 0.0 0.00 0.00 0.00 46 1016.2
20260506195610 73 164 4.0 0.0 0.00 0.00 0.00 46 1016.2
20260506195535 73 114 3.0 6.0 0.00 0.00 0.00 46 1017.2
20260506195335 74 164 4.0 0.0 0.00 0.00 0.00 45 1016.2
20260506195306 74 164 4.0 0.0 0.00 0.00 0.00 46 1016.2
20260506195234 74 164 4.0 5.0 0.00 0.00 0.00 46 1016.2
20260506195032 74 177 6.0 6.0 0.00 0.00 0.00 45 1017.2
20260506195014 73 137 0.0 0.0 0.00 0.00 0.00 46 1016.4
20260506194938 73 137 0.0 0.0 0.00 0.00 0.00 46 1016.4
20260506194907 74 137 0.0 0.0 0.00 0.00 0.00 46 1016.4
20260506194837 74 137 0.0 0.0 0.00 0.00 0.00 45 1016.4
20260506194745 75 137 0.0 0.0 0.00 0.00 0.00 45 1016.4
20260506194715 75 137 0.0 0.0 0.00 0.00 0.00 44 1016.4
20260506194645 75 137 0.0 0.0 0.00 0.00 0.00 45 1016.4
20260506194549 75 137 0.0 0.0 0.00 0.00 0.00 45 1016.4
20260506194529 75 41 4.0 5.0 0.00 0.00 0.00 45 1017.3
20260506194454 75 137 0.0 0.0 0.00 0.00 0.00 45 1016.4
20260506194253 75 137 0.0 0.0 0.00 0.00 0.00 47 1016.4
20260506194033 74 137 0.0 0.0 0.00 0.00 0.00 47 1016.4
20260506194026 75 230 1.0 3.0 0.00 0.00 0.00 47 1017.3
20260506193950 74 137 0.0 2.0 0.00 0.00 0.00 47 1016.4
20260506193913 74 0.0 0.0 0.00 0.00 0.00 46
20260506193523 74 229 2.0 4.0 0.00 0.00 0.00 47 1017.4
20260506193020 72 209 4.0 6.0 0.00 0.00 0.00 47 1017.3
20260506192517 72 156 1.0 6.0 0.00 0.00 0.00 47 1017.6
20260506192013 71 227 2.0 8.0 0.00 0.00 0.00 48 1017.6
20260506191510 71 193 5.0 7.0 0.00 0.00 0.00 49 1017.8
20260506191006 72 149 3.0 5.0 0.00 0.00 0.00 48 1017.6
20260506190503 71 0 0.0 4.0 0.00 0.00 0.00 48 1017.6
20260506185959 70 14 4.0 4.0 0.00 0.00 0.00 49 1017.6
20260506185457 71 184 5.0 5.0 0.00 0.00 0.00 48 1017.7
20260506184954 73 239 3.0 5.0 0.00 0.00 0.00 46 1017.8
20260506184451 72 289 0.0 3.0 0.00 0.00 0.00 48 1017.9
20260506183948 71 203 0.0 5.0 0.00 0.00 0.00 50 1017.9
20260506183443 70 147 2.0 8.0 0.00 0.00 0.00 51 1017.8
20260506182941 69 121 3.0 9.0 0.00 0.00 0.00 50 1017.9
20260506182438 70 111 1.0 4.0 0.00 0.00 0.00 49 1017.9
20260506181935 69 210 4.0 6.0 0.00 0.00 0.00 51 1018.0
20260506181433 69 225 3.0 6.0 0.00 0.00 0.00 51 1018.0
20260506180930 69 173 5.0 7.0 0.00 0.00 0.00 51 1018.0
20260506180426 70 251 2.0 4.0 0.00 0.00 0.00 49 1018.3
20260506175923 69 80 3.0 6.0 0.00 0.00 0.00 52 1018.2
20260506175420 69 160 3.0 4.0 0.00 0.00 0.00 52 1018.0
20260506174916 68 332 2.0 3.0 0.00 0.00 0.00 52 1018.1
20260506174414 67 163 4.0 5.0 0.00 0.00 0.00 54 1018.4
20260506173911 67 117 3.0 6.0 0.00 0.00 0.00 53 1018.3
20260506173408 68 189 4.0 4.0 0.00 0.00 0.00 52 1018.3
20260506172905 68 142 1.0 3.0 0.00 0.00 0.00 53 1018.3
20260506172401 69 191 1.0 3.0 0.00 0.00 0.00 51 1018.2
20260506171859 68 351 0.0 3.0 0.00 0.00 0.00 52 1018.2
20260506171356 65 166 0.0 4.0 0.00 0.00 0.00 56 1018.5
20260506170854 65 156 2.0 7.0 0.00 0.00 0.00 57 1018.2
20260506170350 66 312 1.0 2.0 0.00 0.00 0.00 56 1018.3
20260506165849 66 297 1.0 6.0 0.00 0.00 0.00 56 1018.4
20260506165347 67 112 1.0 3.0 0.00 0.00 0.00 55 1018.3
20260506164843 66 114 0.0 2.0 0.00 0.00 0.00 57 1018.2
20260506164339 65 139 2.0 6.0 0.00 0.00 0.00 58 1018.2
20260506163837 66 28 2.0 3.0 0.00 0.00 0.00 57 1018.2
20260506163331 65 332 0.0 3.0 0.00 0.00 0.00 58 1018.3
20260506162827 66 36 3.0 3.0 0.00 0.00 0.00 57 1018.4
20260506162325 65 205 3.0 4.0 0.00 0.00 0.00 58 1018.3
20260506161823 63 173 4.0 4.0 0.00 0.00 0.00 61 1018.2
20260506161320 64 128 1.0 3.0 0.00 0.00 0.00 60 1018.2
20260506160817 63 54 0.0 3.0 0.00 0.00 0.00 62 1018.2
20260506160314 62 184 2.0 4.0 0.00 0.00 0.00 62 1018.3
20260506155813 62 185 1.0 4.0 0.00 0.00 0.00 63 1018.3
20260506155309 63 72 0.0 6.0 0.00 0.00 0.00 63 1018.2
20260506153421 63 115 0.0 2.0 0.00 0.00 0.00 64 1018.5
20260506152919 62 136 1.0 4.0 0.00 0.00 0.00 65 1018.5
20260506152415 61 125 2.0 4.0 0.00 0.00 0.00 66 1018.4
20260506151914 61 78 3.0 4.0 0.00 0.00 0.00 65 1018.4
20260506151410 62 113 0.0 2.0 0.00 0.00 0.00 64 1018.5
20260506150908 60 120 4.0 4.0 0.00 0.00 0.00 66 1018.5
20260506150404 60 131 1.0 3.0 0.00 0.00 0.00 68 1018.3
20260506145901 60 155 2.0 3.0 0.00 0.00 0.00 67 1018.4
20260506145357 61 121 1.0 3.0 0.00 0.00 0.00 66 1018.5
20260506144855 60 129 2.0 3.0 0.00 0.00 0.00 68 1018.4
20260506144351 59 93 0.0 3.0 0.00 0.00 0.00 70 1018.4
20260506143850 59 151 2.0 2.0 0.00 0.00 0.00 69 1018.5
20260506143346 62 181 2.0 2.0 0.00 0.00 0.00 63 1018.5
20260506142845 61 132 0.0 1.0 0.00 0.00 0.00 63 1018.1
20260506142342 61 72 0.0 2.0 0.00 0.00 0.00 64 1018.5
20260506141840 59 84 1.0 2.0 0.00 0.00 0.00 68 1018.3
20260506141338 56 77 0.0 2.0 0.00 0.00 0.00 72 1018.3
20260506140836 55 89 2.0 2.0 0.00 0.00 0.00 74 1018.3
20260506140333 53 79 2.0 2.0 0.00 0.00 0.00 78 1018.3
20260506135829 53 18 1.0 2.0 0.00 0.00 0.00 78 1018.1
20260506135326 51 304 0.0 3.0 0.00 0.00 0.00 81 1018.2
20260506134823 51 28 5.0 6.0 0.00 0.00 0.00 82 1018.0
20260506134319 50 48 0.0 3.0 0.00 0.00 0.00 83 1018.0
20260506133816 50 89 1.0 3.0 0.00 0.00 0.00 83 1018.1
20260506133313 50 53 1.0 3.0 0.00 0.00 0.00 84 1017.9
20260506132810 49 16 2.0 3.0 0.00 0.00 0.00 84 1018.0
20260506132307 49 0 2.0 3.0 0.00 0.00 0.00 85 1018.0
20260506131805 49 1 3.0 4.0 0.00 0.00 0.00 86 1017.8
20260506131301 48 6 0.0 2.0 0.00 0.00 0.00 86 1017.9
20260506130758 49 92 1.0 4.0 0.00 0.00 0.00 86 1017.8
20260506130254 49 89 0.0 3.0 0.00 0.00 0.00 86 1017.9
20260506125753 49 45 3.0 4.0 0.00 0.00 0.00 86 1017.7
20260506125250 49 62 1.0 2.0 0.00 0.00 0.00 86 1017.5
20260506124748 49 19 2.0 2.0 0.00 0.00 0.00 85 1017.7
20260506124245 49 27 1.0 3.0 0.00 0.00 0.00 85 1017.6
20260506123743 49 26 2.0 4.0 0.00 0.00 0.00 85 1017.6
20260506123242 49 78 0.0 2.0 0.00 0.00 0.00 84 1017.5
20260506122738 50 55 0.0 3.0 0.00 0.00 0.00 84 1017.5
20260506122235 50 57 0.0 5.0 0.00 0.00 0.00 84 1017.5
20260506121733 49 0 5.0 6.0 0.00 0.00 0.00 84 1017.6
20260506121230 49 18 4.0 6.0 0.00 0.00 0.00 84 1017.3
20260506120727 50 23 3.0 3.0 0.00 0.00 0.00 84 1017.5
20260506120225 50 15 3.0 5.0 0.00 0.00 0.00 84 1017.2
20260506115723 50 357 1.0 2.0 0.00 0.00 0.00 84 1017.4
20260506115221 50 26 2.0 3.0 0.00 0.00 0.00 84 1017.5
20260506114718 50 50 2.0 4.0 0.00 0.00 0.00 84 1017.4
20260506114215 50 334 2.0 5.0 0.00 0.00 0.00 83 1017.4
20260506113714 50 8 3.0 5.0 0.00 0.00 0.00 83 1017.4
20260506113211 50 357 3.0 6.0 0.00 0.00 0.00 83 1017.4
20260506112707 50 22 3.0 4.0 0.00 0.00 0.00 83 1017.5
20260506112205 50 11 4.0 4.0 0.00 0.00 0.00 84 1017.4
20260506111702 50 20 5.0 5.0 0.00 0.00 0.00 83 1017.3
20260506111200 50 28 0.0 4.0 0.00 0.00 0.00 83 1017.2
20260506110657 50 27 4.0 5.0 0.00 0.00 0.00 83 1017.2
20260506110154 50 343 1.0 4.0 0.00 0.00 0.00 84 1017.4
20260506105651 50 27 3.0 5.0 0.00 0.00 0.00 84 1017.1
20260506105148 50 35 0.0 4.0 0.00 0.00 0.00 84 1017.4
20260506104646 50 22 1.0 3.0 0.00 0.00 0.00 84 1017.0
20260506104143 50 16 4.0 5.0 0.00 0.00 0.00 84 1017.3
20260506103640 50 340 1.0 4.0 0.00 0.00 0.00 84 1017.4
20260506103137 50 30 3.0 6.0 0.00 0.00 0.00 84 1017.4
20260506102635 50 33 4.0 5.0 0.00 0.00 0.00 84 1017.2
20260506102132 50 24 4.0 4.0 0.00 0.00 0.00 85 1017.3
20260506101629 50 33 0.0 3.0 0.00 0.00 0.00 84 1017.3
20260506101126 50 17 0.0 4.0 0.00 0.00 0.00 84 1017.3
20260506100624 50 32 0.0 3.0 0.00 0.00 0.00 84 1017.3
20260506100122 50 33 4.0 4.0 0.00 0.00 0.00 84 1017.4
20260506095621 50 48 0.0 4.0 0.00 0.00 0.00 84 1017.4
20260506095117 50 76 0.0 4.0 0.00 0.00 0.00 84 1017.5
20260506094614 50 4 4.0 4.0 0.00 0.00 0.00 84 1017.4
20260506094112 50 3 4.0 4.0 0.00 0.00 0.00 84 1017.5
20260506093610 50 43 2.0 5.0 0.00 0.00 0.00 84 1017.6
20260506093107 50 33 2.0 4.0 0.00 0.00 0.00 84 1017.6
20260506092605 50 42 0.0 2.0 0.00 0.00 0.00 84 1017.5
20260506092101 50 113 0.0 1.0 0.00 0.00 0.00 84 1017.6
20260506091600 50 17 1.0 5.0 0.00 0.00 0.00 83 1017.7
20260506091057 50 347 1.0 3.0 0.00 0.00 0.00 84 1017.7